Home   Weather   Giessen   Past weeks

Flag for Germany Past Weather in Giessen, Hesse, Germany — Yesterday and Last 2 Weeks

Now
36 °F

Sunny.


Feels Like: 36 °F
Forecast: 35 / 55 °F
Wind: 2 mph from North

Location: Frankfurt-M-Flughafen Airport

Current Time: Apr 27, 2017 at 7:15:50 am

Latest Report: Apr 27, 2017 at 6:50 am


Visibility: 10 mi

Pressure: 29.95 "Hg

Humidity: 81%

Dew Point: 30 °F

Location of GiessenLocation

Past Weather in Giessen — Graph

°F

Giessen Temperature Yesterday

Maximum temperature yesterday: 55 °F (at 3:20 pm)
Minimum temperature yesterday: 39 °F (at 3:50 am)
Average temperature yesterday: 47 °F

High & Low Weather Summary for the Past Weeks

 TemperatureHumidityPressure
High66 °F (Apr 12, 2:20 pm)100% (Apr 17, 10:20 am)30.60 "Hg (Apr 17, 10:20 am)
Low27 °F (Apr 20, 4:20 am)24% (Apr 26, 4:20 pm)29.68 "Hg (Apr 25, 3:50 am)
Average47 °F60%30.12 "Hg
* Reported Apr 12 5:20 am — Apr 27 5:50 am, Giessen, Weather by CustomWeather, © 2017

Note: Actual official high and low records may vary slightly from our data, if they occured in-between our weather recording intervals... More about our weather records

Advertising

Giessen Weather History for the Previous 24 Hours

Scroll right to see more
 ConditionsComfort  
Time TempWeatherWind HumidityBarometerVisibility
5:50 am
Thu, Apr 27
37 °FClear.2 mph75%29.95 "Hg10 mi
4:50 am39 °FPassing clouds.3 mph70%29.92 "HgN/A
3:50 am41 °FClear.6 mph66%29.92 "Hg10 mi
3:20 am41 °FClear.6 mph66%29.92 "Hg10 mi
2:50 am43 °FPassing clouds.5 mph61%29.92 "HgN/A
2:20 am45 °FClear.5 mph57%29.92 "Hg10 mi
1:50 am45 °FClear.6 mph57%29.92 "Hg10 mi
12:50 am45 °FClear.7 mph57%29.92 "Hg10 mi
11:50 pm
Wed, Apr 26
46 °FPassing clouds.3 mph50%29.92 "HgN/A
11:20 pm48 °FPartly cloudy.6 mph43%29.92 "HgN/A
10:50 pm48 °FPartly cloudy.8 mph46%29.92 "HgN/A
10:20 pm50 °FPartly cloudy.6 mph40%29.92 "HgN/A
9:50 pm48 °FPartly cloudy.7 mph46%29.92 "HgN/A
9:20 pm50 °FPassing clouds.9 mph40%29.89 "HgN/A
8:50 pm50 °FClear.1 mph43%29.89 "Hg10 mi
8:20 pm50 °FSunny.2 mph40%29.86 "Hg10 mi
7:50 pm52 °FSunny.7 mph38%29.86 "Hg10 mi
7:20 pm52 °FSunny.1 mph38%29.86 "Hg10 mi
6:50 pm52 °FBroken clouds.5 mph38%29.86 "HgN/A
6:20 pm52 °FBroken clouds.8 mph38%29.86 "HgN/A
5:50 pm52 °FPassing clouds.8 mph38%29.86 "HgN/A
5:20 pm52 °FSunny.10 mph32%29.86 "Hg10 mi
4:50 pm54 °FPassing clouds.7 mph33%29.86 "HgN/A
4:20 pm54 °FPassing clouds.6 mph24%29.86 "HgN/A
3:50 pm54 °FPassing clouds.5 mph26%29.86 "HgN/A
3:20 pm55 °FSunny.3 mph26%29.86 "Hg10 mi
2:50 pm54 °FSunny.5 mph28%29.86 "Hg10 mi
2:20 pm52 °FSunny.7 mph32%29.86 "Hg10 mi
1:50 pm52 °FSunny.8 mph38%29.86 "Hg10 mi
1:20 pm52 °FSunny.6 mph38%29.86 "Hg10 mi
12:50 pm50 °FSunny.3 mph37%29.86 "Hg10 mi
11:50 am48 °FPassing clouds.6 mph43%29.86 "HgN/A
11:20 am48 °FPassing clouds.7 mph40%29.86 "HgN/A
10:50 am46 °FPartly sunny.7 mph50%29.86 "HgN/A
10:20 am46 °FPartly sunny.7 mph50%29.86 "HgN/A
9:50 am46 °FPartly sunny.8 mph50%29.86 "HgN/A
9:20 am45 °FPartly sunny.8 mph53%29.86 "HgN/A
8:50 am45 °FMore clouds than sun.8 mph53%29.86 "HgN/A
8:20 am43 °FMore clouds than sun.7 mph57%29.86 "HgN/A
7:50 am43 °FPassing clouds.6 mph61%29.83 "HgN/A
7:20 am43 °FPassing clouds.3 mph61%29.83 "HgN/A
Weather by CustomWeather, © 2017

See weather overviewHow to use our weather pages